Location: Ethel Rock
(53.4667°N, 4.5667°W)
Time: 01:26:01
(UTC+00:00)

Cosmos 1674 - Pass Details

Date: 24 October 2020
Orbit: 493 x 518 km, 82.5° (Epoch: 26 November)

Event Time Altitude Azimuth Distance (km) Brightness Sun altitude
Exits shadow 06:23:50 - 238° (WSW) 2,654 5.9 -6.4°
Rises 06:23:54 0° 238° (WSW) 2,635 5.9 -6.4°
Reaches altitude 10° 06:26:50 10° 263° (W) 1,749 4.8 -6.0°
Maximum altitude 06:29:04 15° 298° (WNW) 1,470 4.4 -5.7°
Drops below altitude 10° 06:31:18 10° 334° (NNW) 1,750 5.0 -5.3°
Sets 06:34:14 0° 359° (N) 2,637 6.1 -4.9°
